Flag for Guatemala Weather past 2 weeks in Guatemala, Guatemala

Now
73 °F

Scattered clouds.


Feels Like: 77 °F
Forecast: N/A
Wind: 16 mph from North

Location: Guatemala Aeropuertola Aurora

Current Time: Feb 28, 2015 at 5:37:04 PM

Latest Report: Feb 28, 2015 at 5:00 PM


Visibility: N/A

Pressure: 30.27 "Hg

Humidity: 57%

Dew point: 57 °F

Location of GuatemalaLocation

Historic Weather in Guatemala — Graph

°F

Guatemala temperature yesterday

Maximum temperature yesterday: 79 °F (at 3:00 PM)
Minimum temperature yesterday: 61 °F (at 5:00 AM)
Average temperature yesterday: 68 °F

Past Weeks' High & Low Weather Summary

 TemperatureHumidityPressure
High81 °F (Feb 17, 2:00 PM)100% (Feb 17, 5:00 AM)30.42 "Hg (Feb 17, 5:00 AM)
Low52 °F (Feb 15, 12:00 AM)32% (Feb 22, 3:00 PM)30.15 "Hg (Feb 26, 3:00 PM)
Average65 °F73%30.29 "Hg
* Reported Feb 13 4:00 PM — Feb 28 4:00 PM, Guatemala, Weather by CustomWeather, © 2015

Note: Actual official high and low records may vary slightly from our data, if they occured in-between our weather recording intervals... More about our weather records

Advertising

Guatemala weather history for previous 24 hours

 ConditionsComfort  
Time TempWeatherWind HumidityBarometerVisibility
4:00 PM
Sat, Feb 28
75 °FScattered clouds.16 mph54%30.27 "HgN/A
3:00 PM77 °FScattered clouds.16 mph47%30.27 "HgN/A
2:00 PM77 °FScattered clouds.16 mph47%30.30 "HgN/A
1:00 PM73 °FScattered clouds.16 mph57%30.33 "HgN/A
12:00 PM73 °FScattered clouds.18 mph50%30.33 "HgN/A
11:00 AM72 °FPassing clouds.18 mph53%30.36 "HgN/A
10:00 AM68 °FPassing clouds.14 mph60%30.36 "HgN/A
9:00 AM63 °FScattered clouds.14 mph77%30.36 "HgN/A
8:00 AM59 °FPassing clouds.12 mph94%30.33 "HgN/A
7:00 AM57 °FPassing clouds.12 mph94%30.33 "HgN/A
6:00 AM57 °FPassing clouds.12 mph94%30.30 "HgN/A
5:00 AM59 °FPassing clouds.12 mph88%30.27 "HgN/A
4:00 AM59 °FPassing clouds.12 mph88%30.27 "HgN/A
3:00 AM59 °FPassing clouds.12 mph88%30.30 "HgN/A
2:00 AM59 °FPassing clouds.9 mph94%30.27 "HgN/A
1:00 AM61 °FClear.12 mph88%30.27 "Hg10 mi
12:00 AM61 °FClear.12 mph83%30.30 "Hg10 mi
11:00 PM
Fri, Feb 27
63 °FPassing clouds.16 mph77%30.30 "HgN/A
10:00 PM63 °FPassing clouds.14 mph77%30.30 "HgN/A
9:00 PM64 °FClear.14 mph73%30.27 "Hg10 mi
8:00 PM66 °FClear.14 mph68%30.24 "Hg10 mi
7:00 PM68 °FPassing clouds.14 mph64%30.21 "HgN/A
6:00 PM72 °FPassing clouds.18 mph57%30.18 "HgN/A
5:00 PM75 °FPassing clouds.23 mph50%30.18 "HgN/A
Weather by CustomWeather, © 2015

See weather overviewHow to use our weather pages